Home > Weather > Prudhoe Bay > Past weeks

Flag for USA Past Weather in Prudhoe Bay, Alaska, USA — Yesterday and Last 2 Weeks

Now
45 °F

Mostly cloudy.


Feels Like: 43 °F
Forecast: 37 / 44 °F
Wind: 5 mph from Northeast

Location: Deadhorse Airport

Current Time: Jun 29, 2016 at 1:59:05 PM

Latest Report: Jun 29, 2016 at 12:53 PM


Visibility: 10 mi

Pressure: 30.07 "Hg

Humidity: 86%

Dew Point: 41 °F

Location of Prudhoe BayLocation

Past Weather in Prudhoe Bay — Graph

°F

Prudhoe Bay Temperature Yesterday

Maximum temperature yesterday: 76 °F (at 5:53 PM)
Minimum temperature yesterday: 39 °F (at 1:53 AM)
Average temperature yesterday: 60 °F

High & Low Weather Summary for the Past Weeks

 TemperatureHumidityPressure
High76 °F (Jun 28, 5:53 PM)100% (Jun 25, 10:53 AM)30.28 "Hg (Jun 25, 10:53 AM)
Low30 °F (Jun 16, 5:53 AM)26% (Jun 28, 4:53 PM)29.55 "Hg (Jun 18, 4:53 AM)
Average45 °F82%29.93 "Hg
* Reported Jun 14 12:00 PM — Jun 29 11:53 AM, Prudhoe Bay, Weather by CustomWeather, © 2016

Note: Actual official high and low records may vary slightly from our data, if they occured in-between our weather recording intervals... More about our weather records

Advertising

Prudhoe Bay Weather History for the Previous 24 Hours

Scroll right to see more
 ConditionsComfort  
Time TempWeatherWind HumidityBarometerVisibility
11:53 AM
Wed, Jun 29
42 °FLow clouds.3 mph92%30.08 "Hg10 mi
10:53 AM42 °FLow clouds.3 mph89%30.07 "Hg10 mi
9:53 AM41 °FLight rain. Low clouds.7 mph89%30.06 "Hg7 mi
8:53 AM42 °FMore clouds than sun.No wind85%30.05 "Hg10 mi
7:53 AM41 °FMore clouds than sun.7 mph89%30.05 "Hg10 mi
6:53 AM42 °FFog.7 mph89%30.04 "Hg5 mi
5:53 AM42 °FLow clouds.9 mph92%30.03 "Hg7 mi
4:53 AM43 °FFog.9 mph93%30.02 "Hg5 mi
3:53 AM45 °FLow clouds.12 mph93%30.00 "Hg7 mi
2:53 AM49 °FMore clouds than sun.13 mph93%29.97 "Hg10 mi
1:53 AM50 °FMostly cloudy.10 mph86%29.96 "Hg10 mi
12:53 AM51 °FMostly cloudy.12 mph80%29.93 "Hg10 mi
11:53 PM
Tue, Jun 28
52 °FPartly sunny.9 mph77%29.89 "Hg10 mi
10:53 PM66 °FBroken clouds.10 mph59%29.84 "Hg10 mi
9:53 PM67 °FPartly sunny.10 mph59%29.84 "Hg10 mi
8:53 PM70 °FMore clouds than sun.13 mph51%29.83 "Hg10 mi
7:53 PM73 °FOvercast.16 mph43%29.83 "Hg10 mi
6:53 PM75 °FSunny.16 mph40%29.83 "Hg10 mi
5:53 PM76 °FPartly sunny.25 mph26%29.83 "Hg10 mi
4:53 PM74 °FPartly sunny.21 mph26%29.84 "Hg10 mi
3:53 PM75 °FPartly sunny.23 mph27%29.85 "Hg10 mi
2:53 PM72 °FPartly sunny.17 mph30%29.87 "Hg10 mi
1:53 PM71 °FPartly sunny.20 mph31%29.89 "Hg10 mi
Weather by CustomWeather, © 2016

See weather overviewHow to use our weather pages